Find Starlink 4317

NORAD ID: 53058 Int'l Des: 2022-077 Owner: SPXS Country: US Constellation: starlink operational
LEOCIRCULARRETROGRADESSO

Live Position

Loading 3D Globe...

About Starlink 4317

Description loading...

Upcoming Passes

Passes for default location (London). Set your location on the main map for personalized predictions.

Altitude History

Loading altitude history...

Two-Line Element Set

1 53058U 22077R 26124.46681150 -.00000066 00000-0 -38961-6 0 9992
2 53058 97.5359 305.0722 0002432 122.9946 237.1515 15.05661092209318
Epoch: May 4, 2026 • Age: 11 hours

Current Status

Altitude 563.8 km
Velocity 7.58 km/s
Sub-Earth Point -33.63°S, 114.45°E
Launch Date Jul 11, 2022
Age 3.8 years
Type internet

Technical Details

Classification Payload
Mass 297.00 kg
Dry Mass 275.00 kg
Total Mass 297.00 kg
Length 0.20 m
Diameter 2.80 m
Span 9.00 m
Shape Box + pan
Manufacturer SPXS
Bus Type Starlink
Phase Status In Orbit
Owner/State SPXS/US

Most Searched